Погода в Сант-Кугате-дель-Вальесе

Испания     41°28′23″N   2°04′43″E
темп.,
°C
ветер,
м/с
пор.,
м/с
влажн.,
%
обл.,
%
осадки,
мм/ч
давл.,
гПа
погр.,
м
7 мая, пт
пт723:00+18ю246373 0.0 1016501
02:00+17юв11717 0.0 1016187
05:00+16с11755 0.0 101544
08:00+16св11685 0.0 1016155
11:00+20юв22554 0.0 1017879
14:00+23юв4645100 0.0 10161498
17:00+18вюв446437 0.0 1017662
20:00+17вюв447586 0.0 1018778
8 мая, сб
сб823:00+16вюв2381100 0.1 1020442
02:00+16юв128116 0.1 1019289
05:00+15всв118551 0.0 101856
08:00+15с11795 0.0 1018142
11:00+21ююз23530 0.0 1017648
14:00+25ю55395 0.0 10161092
17:00+24ю57417 0.0 1014932
20:00+21ю3548100 0.0 1014574
9 мая, вс
вс923:00+19юв2265100 0.0 1014303
02:00+17всв1173100 0.0 1013108
05:00+16всв227641 0.0 101289
08:00+16всв2472100 0.0 1011245
11:00+20в465798 0.0 1010741
14:00+21вюв5557100 0.0 1008919
17:00+21вюв4457100 0.0 1005702
20:00+19ю3568100 0.0 1006601
10 мая, пн
пн1023:00+18зсз13743 0.2 1008331
02:00+16сз127454 0.2 1009120
05:00+15сз2275100 0.0 100973
08:00+16зсз2262100 0.0 1009196
11:00+17зсз1252100 0.1 1010536
14:00+22зюз45401 0.1 10091940
17:00+21ююз7640100 0.0 10081872
20:00+18ююз685390 0.0 1008964
11 мая, вт
вт1123:00+16зсз236389 0.5 1009396
02:00+14с238078 3.1 1009176
05:00+13зсз25825 0.5 1008223
08:00+13сз376998 0.5 1008403
11:00+16з685543 0.9 10091495
14:00+18зсз9103523 1.6 10082151
17:00+20сз893229 0.0 10072464
20:00+18зюз153948 0.1 10121401